FENGYUN 1C DEB, 36162

Orbit data source: Space-Track

FENGYUN 1C DEB, 36162 is space debris in SSO originally from a launch on Mon, 10 May 1999 UTC launched from the Taiyaun Space Center, China (TSC). Fengyun 1C debris stems from the Chinese weather satellite Fengyun-1C, which was intentionally destroyed by a Chinese anti-satellite missile in 2007. This event dramatically increased the amount of space debris, with thousands of trackable fragments posing hazards to satellites and human spaceflight. The Fengyun 1C debris cloud has become a focal point in discussions about space sustainability and the need for international regulations to prevent the creation of new debris.

Loading next visibility...
Identifier
36162, 1999-025DSK
Orbit
SSO
Country
Flag of CNCN / PRC
Related business
Manufacturer
Unknown
Mission
Spacecraft
Bus & Motor
Unknown
Mass
Unknown
Launch date (UTC)
1999-05-10 (27 years ago)
Launch vehicle
Unknown
Launch site
Taiyaun Space Center, China (TSC)
Object type
Payload
Rocket body
Debris
Shape & HBR
Unknown shape, 1.1 m
Radar Cross Section
Small (<0.1 m²)

Expand to show TLE details & history
Last TLE update: 6 months ago

TLE from 6 months ago
0 FENGYUN 1C DEB
1 36162U 99025DSK 25254.72131584  .00003634  00000-0  18346-2 0  9992
2 36162  97.6195  68.4402 0260872  27.7810 333.7017 14.00602373692334
Epoch: 2025-09-11T17:18Z
TLE epoch observation values (Epoch: 2025-09-11T17:18:41.688Z)
Latitude
-0.00002°
Longitude
177.78719°
Altitude
725.583 km
Speed
7.579 km/s
True Right ascension
04h 33m 45s
True Declination
0° 00' 00"
Sunlit
Object was in daylight at epoch
Visualization orbit readout
Latitude
Unknown
Longitude
Unknown
Altitude
Unknown
Speed
Unknown
Apparent Right ascension
Unknown
Apparent Declination
Unknown
Sunlit
N/A
Visualization observer readout
Local Sidereal Time
12:54:50
Azimuth
Unknown
Elevation
Unknown
Doppler factor
Unknown
Orbital elements
Apogee altitude
1,078.418 km
Perigee altitude
699.268 km
Semi-major axis
7,266.98 km
Eccentricity
0.02609
Inclination
97.6195°
RAAN
68.4402°
Arg. of periapsis
27.781°
True anomaly
332.33757°
Mean anomaly
333.7017°
Eccentric anomaly
333.02368°
Mean motion
3.50358 °/min
Orbital period
102.75 mins
BSTAR
0.0018346
Loading maneuver chart data...
Computing Atmospheric mass density...
Loading historical data...
Loading historical data...
Loading historical data...
Loading historical data...
Loading historical data...
Loading historical data...
Loading historical data...

Documentation

Showing up to 5 results
|